Flag for New Zealand Weather past 2 weeks in Wellington, New Zealand

Now
46 °F

Cool.


Feels Like: 45 °F
Forecast: 46 / 56 °F
Wind: 3 mph from Northeast

Location: Wellington Airport

Current Time: Aug 31, 2014 at 8:41:14 AM

Latest Report: Aug 31, 2014 at 8:00 AM


Visibility: N/A

Pressure: 30.36 "Hg

Humidity: 82%

Dew point: 41 °F

Location of WellingtonLocation

Historic Weather in Wellington — Graph

°F

Wellington temperature yesterday

Maximum temperature yesterday: 55 °F (at 1:30 PM)
Minimum temperature yesterday: 45 °F (at 1:00 AM)
Average temperature yesterday: 51 °F

Past Weeks' High & Low Weather Summary

 TemperatureHumidityPressure
High57 °F (Aug 18, 12:30 PM)100% (Aug 20, 4:00 PM)30.60 "Hg (Aug 20, 4:00 PM)
Low37 °F (Aug 27, 12:30 AM)55% (Aug 17, 3:30 PM)29.65 "Hg (Aug 20, 4:30 PM)
Average49 °F79%30.32 "Hg
* Reported Aug 16 7:00 AM — Aug 31 7:30 AM, Wellington, Weather by CustomWeather, © 2014

Note: Actual official high and low records may vary slightly from our data, if they occured in-between our weather recording intervals... More about our weather records

Advertising

Wellington weather history for previous 24 hours

 ConditionsComfort  
Time TempWeatherWind HumidityBarometerVisibility
7:30 AM
Aug 31
46 °FCool.5 mph87%30.36 "HgN/A
7:00 AM46 °FCool.1 mph87%30.36 "Hg4 mi
6:30 AM45 °FQuite cool.2 mph87%30.36 "HgN/A
6:00 AM41 °FPassing clouds.2 mph93%30.36 "HgN/A
5:30 AM41 °FQuite cool.2 mph87%30.36 "HgN/A
5:00 AM43 °FQuite cool.3 mph87%30.36 "HgN/A
4:30 AM41 °FQuite cool.1 mph87%30.36 "HgN/A
4:00 AM41 °FQuite cool.2 mph87%30.36 "HgN/A
3:30 AM43 °FQuite cool.1 mph93%30.36 "Hg6 mi
3:00 AM43 °FQuite cool.2 mph87%30.36 "HgN/A
2:30 AM41 °FQuite cool.3 mph93%30.39 "HgN/A
2:00 AM45 °FQuite cool.1 mph81%30.39 "HgN/A
1:30 AM45 °FQuite cool.2 mph81%30.39 "HgN/A
1:00 AM48 °FCool.2 mph87%30.39 "Hg5 mi
12:30 AM46 °FCool.3 mph82%30.39 "HgN/A
12:00 AM46 °FCool.1 mph82%30.42 "HgN/A
11:30 PM
Aug 30
46 °FPassing clouds.1 mph82%30.42 "HgN/A
11:00 PM48 °FCool.1 mph76%30.42 "HgN/A
10:30 PM48 °FPassing clouds.1 mph76%30.42 "HgN/A
10:00 PM50 °FPassing clouds.2 mph76%30.42 "HgN/A
9:30 PM50 °FPassing clouds.2 mph71%30.42 "HgN/A
9:00 PM52 °FPassing clouds.3 mph72%30.42 "HgN/A
8:30 PM52 °FPassing clouds.6 mph72%30.42 "HgN/A
8:00 PM52 °FOvercast.6 mph72%30.42 "HgN/A
7:30 PM52 °FOvercast.5 mph72%30.42 "HgN/A
7:00 PM52 °FOvercast.3 mph72%30.45 "HgN/A
6:30 PM54 °FOvercast.5 mph67%30.42 "HgN/A
6:00 PM54 °FPassing clouds.8 mph67%30.42 "HgN/A
5:30 PM54 °FPassing clouds.9 mph67%30.42 "HgN/A
5:00 PM55 °FPassing clouds.7 mph63%30.42 "HgN/A
4:30 PM55 °FPartly sunny.6 mph63%30.42 "HgN/A
4:00 PM55 °FBroken clouds.9 mph63%30.42 "HgN/A
3:30 PM54 °FPartly sunny.13 mph77%30.42 "HgN/A
3:00 PM54 °FBroken clouds.14 mph77%30.42 "HgN/A
2:30 PM54 °FOvercast.12 mph77%30.45 "HgN/A
2:00 PM54 °FMostly cloudy.13 mph77%30.45 "HgN/A
1:30 PM55 °FPartly sunny.10 mph72%30.45 "HgN/A
1:00 PM54 °FPartly sunny.12 mph82%30.48 "HgN/A
12:30 PM52 °FOvercast.14 mph82%30.48 "HgN/A
12:00 PM54 °FPartly sunny.14 mph77%30.48 "HgN/A
11:30 AM54 °FPartly sunny.10 mph72%30.51 "HgN/A
11:00 AM54 °FCool.12 mph77%30.51 "HgN/A
10:30 AM54 °FPassing clouds.9 mph77%30.51 "HgN/A
10:00 AM52 °FScattered clouds.8 mph77%30.51 "HgN/A
9:30 AM52 °FPartly sunny.3 mph77%30.54 "HgN/A
9:00 AM50 °FScattered clouds.6 mph76%30.54 "HgN/A
Weather by CustomWeather, © 2014

See weather overviewHow to use our weather pages